Voltar ao catálogo

QIANFAN-226

AtivoComunicaçõesPO
NORAD 69855·PAYLOAD·🇨🇳 China

Lançado Jul 5, 2026 de Wenchang Space Launch Site

Loading…

Próximas Passagens (próximas 24 horas)

TLE

AtualizadoSource: Space-Track

Época: Sep 14, 2026, 11:05 UTC

1 69855U 26155H   26257.46245939 -.01765198  00000-0 -27825+1 0  9999
2 69855  89.0071  54.3390 0037943  33.6665 326.6887 13.53808381  9907

Acompanhe QIANFAN-226 em tempo real com AllMySat

Download on the App Store